VHWBM YMAV-YMAV

Flight info

Callsign VHWBM
Flight time 0h 7m
Altitude 14000
Route YMAV VFR HELICOPTER REFINERY INSPECTION VIA ESNAB RETURN YMAV NOT ABV 1500
Aircraft H225/M-SBGRW/S

Departure

Time 2026-04-17 11:42
Airport Melbourne Avalon International Airport (YMAV)

Arrival

Time 2026-04-17 11:49
Airport Melbourne Avalon International Airport (YMAV)
Time Latitude Longitude Altitude Speed Heading
2026-04-17 11:32 -38.02631 144.48066 28 ft 0 kts 343°
2026-04-17 11:41 -38.02641 144.48047 131 ft 17 kts 200°
2026-04-17 11:41 -38.03017 144.47919 97 ft 85 kts 189°
2026-04-17 11:42 -38.03651 144.47732 167 ft 105 kts 190°
2026-04-17 11:42 -38.04258 144.47575 690 ft 90 kts 187°
2026-04-17 11:42 -38.04910 144.47466 956 ft 99 kts 190°
2026-04-17 11:42 -38.05634 144.47288 995 ft 97 kts 193°
2026-04-17 11:43 -38.06303 144.47129 1153 ft 100 kts 190°
2026-04-17 11:43 -38.06966 144.46958 1363 ft 95 kts 183°
2026-04-17 11:43 -38.07632 144.46881 1480 ft 102 kts 180°
2026-04-17 11:43 -38.08299 144.46787 1642 ft 95 kts 186°
2026-04-17 11:44 -38.08973 144.46740 1742 ft 96 kts 183°
2026-04-17 11:44 -38.09679 144.46734 1587 ft 111 kts 195°
2026-04-17 11:44 -38.10358 144.46401 1452 ft 103 kts 227°
2026-04-17 11:44 -38.10901 144.45849 1538 ft 97 kts 232°
2026-04-17 11:45 -38.11302 144.45129 1597 ft 103 kts 263°
2026-04-17 11:45 -38.11391 144.44217 1720 ft 102 kts 279°
2026-04-17 11:45 -38.11144 144.43322 1692 ft 124 kts 317°
2026-04-17 11:45 -38.10448 144.42608 1368 ft 134 kts 314°
2026-04-17 11:46 -38.09751 144.41803 1007 ft 135 kts 310°
2026-04-17 11:46 -38.09078 144.41021 707 ft 133 kts 310°
2026-04-17 11:46 -38.08480 144.40190 555 ft 119 kts 310°
2026-04-17 11:46 -38.07783 144.39739 488 ft 112 kts 333°
2026-04-17 11:47 -38.07164 144.39272 529 ft 107 kts 308°
2026-04-17 11:47 -38.06758 144.38520 614 ft 95 kts 264°
2026-04-17 11:47 -38.07225 144.37921 351 ft 116 kts 208°
2026-04-17 11:47 -38.07853 144.37583 435 ft 65 kts 197°
2026-04-17 11:48 -38.08218 144.37649 242 ft 59 kts 88°
2026-04-17 11:48 -38.08438 144.38092 238 ft 54 kts 59°
2026-04-17 11:48 -38.08311 144.38492 217 ft 56 kts 21°
2026-04-17 11:48 -38.07916 144.38664 145 ft 66 kts 351°
2026-04-17 11:49 -38.07547 144.38886 294 ft 58 kts 347°
2026-04-17 11:49 -38.07160 144.39000 294 ft 49 kts 264°
2026-04-17 11:49 -38.07056 144.38499 235 ft 77 kts 246°
2026-04-17 11:49 -38.07172 144.38006 324 ft 52 kts 123°
2026-04-17 11:50 -38.07631 144.38021 190 ft 83 kts 203°
2026-04-17 11:50 -38.07906 144.37863 398 ft 19 kts 47°
2026-04-17 11:50 -38.07853 144.38096 286 ft 25 kts 301°
2026-04-17 11:50 -38.07668 144.37937 251 ft 46 kts 162°
2026-04-17 11:51 -38.07973 144.37929 253 ft 63 kts 49°
2026-04-17 11:51 -38.07857 144.38023 230 ft 63 kts 332°
2026-04-17 11:51 -38.07642 144.37997 481 ft 33 kts 153°
2026-04-17 11:51 -38.07919 144.38572 376 ft 78 kts 54°
2026-04-17 11:52 -38.07437 144.38798 116 ft 83 kts 17°
2026-04-17 11:52 -38.07078 144.38922 557 ft 44 kts 257°
2026-04-17 11:52 -38.06958 144.38218 250 ft 79 kts 233°
2026-04-17 11:52 -38.07303 144.37903 240 ft 85 kts 176°
2026-04-17 11:53 -38.07823 144.37557 212 ft 79 kts 195°
2026-04-17 11:53 -38.08236 144.37436 304 ft 35 kts 197°
2026-04-17 11:53 -38.08484 144.37548 317 ft 20 kts 25°
2026-04-17 11:53 -38.08219 144.37642 222 ft 60 kts 354°
2026-04-17 11:54 -38.07918 144.37723 329 ft 42 kts 214°
2026-04-17 11:54 -38.08198 144.37432 448 ft 26 kts 33°
2026-04-17 11:54 -38.08140 144.37805 553 ft 54 kts 324°
2026-04-17 11:54 -38.07790 144.38401 325 ft 98 kts 24°
2026-04-17 11:55 -38.07457 144.38620 590 ft 24 kts 252°
2026-04-17 11:55 -38.07721 144.38116 354 ft 103 kts 225°
2026-04-17 11:55 -38.08058 144.37344 477 ft 80 kts 191°
2026-04-17 11:55 -38.08161 144.37379 368 ft 36 kts 74°
2026-04-17 11:56 -38.08215 144.37733 373 ft 26 kts 345°
2026-04-17 11:56 -38.08013 144.37759 290 ft 51 kts 239°
2026-04-17 11:56 -38.07906 144.37490 473 ft 34 kts 150°
2026-04-17 11:56 -38.08229 144.37459 443 ft 55 kts 36°
2026-04-17 11:57 -38.08139 144.37840 419 ft 65 kts 280°
2026-04-17 11:57 -38.07852 144.37543 424 ft 74 kts 170°
2026-04-17 11:57 -38.08012 144.37380 889 ft 78 kts 66°
2026-04-17 11:57 -38.07530 144.37911 321 ft 110 kts 54°
2026-04-17 11:58 -38.07130 144.38571 169 ft 77 kts 140°
2026-04-17 11:58 -38.07208 144.38899 247 ft 42 kts 210°
2026-04-17 11:58 -38.07556 144.38688 189 ft 50 kts 237°
2026-04-17 11:58 -38.07638 144.38540 160 ft 1 kts 227°
2026-04-17 11:59 -38.07676 144.38452 177 ft 11 kts 239°
2026-04-17 11:59 -38.07636 144.38349 172 ft 34 kts 141°
2026-04-17 11:59 -38.07766 144.38435 234 ft 40 kts 317°
2026-04-17 11:59 -38.07678 144.38431 236 ft 26 kts 240°
2026-04-17 12:00 -38.07685 144.38498 317 ft 52 kts 194°
2026-04-17 12:00 -38.07840 144.38445 470 ft 43 kts 324°
2026-04-17 12:00 -38.07581 144.38140 236 ft 47 kts 146°
2026-04-17 12:00 -38.07325 144.38039 252 ft 45 kts 228°
2026-04-17 12:01 -38.07680 144.38294 279 ft 73 kts 117°
2026-04-17 12:01 -38.07690 144.38330 551 ft 43 kts 355°
2026-04-17 12:01 -38.07376 144.38279 659 ft 84 kts 46°
2026-04-17 12:01 -38.07175 144.39136 475 ft 119 kts 80°
2026-04-17 12:02 -38.06949 144.40126 642 ft 107 kts 64°
2026-04-17 12:02 -38.06650 144.40947 770 ft 112 kts 54°
2026-04-17 12:02 -38.06144 144.41788 787 ft 112 kts 36°
2026-04-17 12:02 -38.05531 144.42427 830 ft 120 kts 32°
2026-04-17 12:03 -38.04839 144.43057 687 ft 120 kts 33°
2026-04-17 12:03 -38.04228 144.43761 656 ft 119 kts 43°
2026-04-17 12:03 -38.03684 144.44592 629 ft 123 kts 50°
2026-04-17 12:03 -38.03148 144.45434 537 ft 126 kts 46°
2026-04-17 12:04 -38.02819 144.46448 360 ft 109 kts 68°
2026-04-17 12:04 -38.02674 144.47145 205 ft 44 kts 80°
2026-04-17 12:04 -38.02699 144.47479 324 ft 49 kts 76°
2026-04-17 12:04 -38.02634 144.47914 177 ft 39 kts 82°
2026-04-17 12:05 -38.02620 144.48062 51 ft 9 kts 319°
2026-04-17 12:05 -38.02625 144.48054 25 ft 7 kts 90°
2026-04-17 12:05 -38.02626 144.48061 24 ft 0 kts 92°
2026-04-17 12:05 -38.02626 144.48060 24 ft 0 kts 84°